Glendive, MT

2:09 AM MDT on August 26, 2019 (GMT -0600)
Dawson Community

Weather History for KGDV - July, 2019

Change the Weather History Date:

Friday, July 19, 2019

  Actual Average Record
Temperature  
Mean Temperature 70 °F 75 °F  
Max Temperature 80 °F 89 °F 100 °F (2003)
Min Temperature 59 °F 61 °F 52 °F (1993)
Degree Days  
Heating Degree Days 0 0  
Month to date heating degree days 14 0  
Year to date heating degree days 5580 4292  
Since 1 July heating degree days 14 0  
Cooling Degree Days 5 0  
Month to date cooling degree days 108 87  
Year to date cooling degree days 180 108  
Since 1 July cooling degree days 180 108  
Growing Degree Days 19 (Base 50)    
Moisture  
Dew Point 46 °F    
Average Humidity 44    
Maximum Humidity 68    
Minimum Humidity 27    
Precipitation  
Precipitation 0.00 in 0.06 in 0.44 in (2017)
Month to date precipitation 2.18 1.27  
Year to date precipitation 7.83 8.40  
Sea Level Pressure  
Sea Level Pressure 29.79 in    
Wind  
Wind Speed 7 mph (NW)    
Max Wind Speed 13 mph    
Max Gust Speed -    
Visibility 10 miles    
Events Rain    
T = Trace of Precipitation, MM = Missing Value Source: NWS Daily Summary

Daily Weather History Graph

Daily Weather History Graph

Search for Another Location

Airport or City:

Astronomy

Jul. 19, 2019 Rise Set
Actual Time 5:22 AM MDT 8:47 PM MDT
Civil Twilight 4:45 AM MDT 9:25 PM MDT
Nautical Twilight 3:55 AM MDT 10:14 PM MDT
Astronomical Twilight 2:50 AM MDT 11:18 PM MDT
Moon 10:38 PM MDT (7/19) 7:58 AM MDT (7/19)
Length of Visible Light 16h 39m
Length of Day
15h 24m
Waning Gibbous, 93% of the Moon is Illuminated
Jul 19
Waning Gibbous
Jul 24
Last Quarter
Jul 31
New
Aug 7
First Quarter
Aug 15
Full

Hourly Weather History & Observations

Time (MDT) Temp. Dew Point Humidity Pressure Visibility Wind Dir Wind Speed Gust Speed Precip Events Conditions
12:56 AM 70.0 °F 52.0 °F 53% 29.70 in 10.0 mi Variable 3.5 mph - N/A   Overcast
1:56 AM 69.1 °F 51.1 °F 53% 29.70 in 10.0 mi WNW 6.9 mph - N/A   Scattered Clouds
2:56 AM 66.0 °F 45.0 °F 47% 29.71 in 10.0 mi NW 10.4 mph - N/A   Partly Cloudy
3:56 AM 63.0 °F 45.0 °F 52% 29.74 in 10.0 mi NW 10.4 mph - N/A   Overcast
4:56 AM 60.1 °F 45.0 °F 57% 29.74 in 10.0 mi NW 12.7 mph - N/A   Mostly Cloudy
5:56 AM 60.1 °F 45.0 °F 57% 29.75 in 10.0 mi NW 11.5 mph - N/A   Mostly Cloudy
6:56 AM 62.1 °F 45.0 °F 53% 29.78 in 10.0 mi Calm Calm - N/A   Overcast
7:56 AM 63.0 °F 43.0 °F 48% 29.80 in 10.0 mi NNW 11.5 mph - N/A   Mostly Cloudy
8:56 AM 64.9 °F 42.1 °F 43% 29.82 in 10.0 mi NNW 4.6 mph - N/A   Mostly Cloudy
9:56 AM 69.1 °F 41.0 °F 36% 29.82 in 10.0 mi NW 5.8 mph - N/A   Partly Cloudy
10:56 AM 72.0 °F 41.0 °F 33% 29.83 in 10.0 mi Variable 5.8 mph - N/A   Scattered Clouds
11:56 AM 73.9 °F 42.1 °F 32% 29.82 in 10.0 mi NW 6.9 mph - N/A   Partly Cloudy
12:56 PM 75.0 °F 39.0 °F 27% 29.80 in 10.0 mi Calm Calm - N/A   Clear
1:56 PM 78.1 °F 42.1 °F 28% 29.78 in 10.0 mi West 8.1 mph - N/A   Clear
2:56 PM 77.0 °F 42.1 °F 29% 29.78 in 10.0 mi North 6.9 mph - N/A   Clear
3:56 PM 78.1 °F 44.1 °F 30% 29.78 in 10.0 mi Variable 5.8 mph - N/A   Clear
4:56 PM 78.1 °F 45.0 °F 31% 29.78 in 10.0 mi NNW 9.2 mph - N/A   Clear
5:56 PM 78.1 °F 44.1 °F 30% 29.78 in 10.0 mi NNE 6.9 mph - N/A   Partly Cloudy
6:56 PM 73.9 °F 50.0 °F 43% 29.80 in 10.0 mi NW 3.5 mph - N/A   Scattered Clouds
7:56 PM 75.0 °F 54.0 °F 48% 29.80 in 10.0 mi Calm Calm - N/A   Mostly Cloudy
8:56 PM 70.0 °F 55.0 °F 59% 29.83 in 10.0 mi NW 5.8 mph - N/A   Mostly Cloudy
9:56 PM 70.0 °F 51.1 °F 51% 29.84 in 10.0 mi ENE 6.9 mph - N/A   Overcast
10:56 PM 70.0 °F 50.0 °F 49% 29.86 in 10.0 mi NNW 9.2 mph - N/A   Overcast
11:56 PM 66.0 °F 55.0 °F 68% 29.88 in 10.0 mi SSW 4.6 mph - 0.00 in Rain Light Rain